Burnsville, North Carolina, United States (28714)
Lat: 35.92N, Lon: 82.3W
Wx Zone: NCZ049
Local Info
Past Weather Observations for Monday, August 31, 2015

NOTE: This archive is for the closest National Weather Service station to Burnsville. Information may differ from the station used for current weather conditions.

Click here for Long-term Archive

Time Weather Temperature Dewpoint Humidity Pressure Winds Precip Visibility
23:54
Clear
70°F / 21°C 64°F / 18°C 83% 30.18 in
(1022 mb)
Calm - 10SM
22:54
Overcast
70°F / 21°C 66°F / 19°C 88% 30.21 in
(1023 mb)
Calm - 10SM
21:54
Clear
72°F / 22°C 66°F / 19°C 83% 30.18 in
(1022 mb)
Calm - 10SM
20:54
Mostly Cloudy
75°F / 24°C 64°F / 18°C 69% 30.18 in
(1022 mb)
Calm - 10SM
19:54
Overcast
75°F / 24°C 64°F / 18°C 69% 30.15 in
(1021 mb)
SE 3.5 mph
(SE 6 kph)
- 10SM
17:54
Overcast
81°F / 27°C 63°F / 17°C 54% 30.15 in
(1021 mb)
Variable 3.5 mph
(Variable 6 kph)
- 10SM
16:54
Overcast
81°F / 27°C 63°F / 17°C 54% 30.12 in
(1020 mb)
NE 4.6 mph
(NE 7 kph)
- 10SM
15:54
Mostly Cloudy
84°F / 29°C 57°F / 14°C 40% 30.12 in
(1020 mb)
E 3.5 mph
(E 6 kph)
- 10SM
14:54
Partly Cloudy
82°F / 28°C 59°F / 15°C 45% 30.15 in
(1021 mb)
SE 5.8 mph
(SE 9 kph)
- 10SM
13:54
Partly Cloudy
82°F / 28°C 59°F / 15°C 45% 30.15 in
(1021 mb)
W 4.6 mph
(W 7 kph)
- 10SM
12:54
Partly Cloudy
81°F / 27°C 59°F / 15°C 48% 30.18 in
(1022 mb)
NNW 6.9 mph
(NNW 11 kph)
- 10SM
11:54
Clear
79°F / 26°C 61°F / 16°C 54% 30.18 in
(1022 mb)
NNW 8.1 mph
(NNW 13 kph)
- 10SM
10:54
Clear
75°F / 24°C 63°F / 17°C 65% 30.21 in
(1023 mb)
N 8.1 mph
(N 13 kph)
- 10SM
09:54
Partly Cloudy
72°F / 22°C 61°F / 16°C 69% 30.21 in
(1023 mb)
N 8.1 mph
(N 13 kph)
- 10SM
08:58
Partly Cloudy
66°F / 19°C 61°F / 16°C 83% 30.21 in
(1023 mb)
N 8.1 mph
(N 13 kph)
- 10SM
08:54
Mostly Cloudy
66°F / 19°C 61°F / 16°C 83% 30.21 in
(1023 mb)
Variable 6.9 mph
(Variable 11 kph)
- 10SM
08:06
Mostly Cloudy
64°F / 18°C 59°F / 15°C 83% 30.21 in
(1023 mb)
N 8.1 mph
(N 13 kph)
- 10SM
07:54
Partly Cloudy
64°F / 18°C 59°F / 15°C 83% 30.21 in
(1023 mb)
N 6.9 mph
(N 11 kph)
- 10SM
07:40
Partly Cloudy
64°F / 18°C 59°F / 15°C 83% 30.18 in
(1022 mb)
N 8.1 mph
(N 13 kph)
- 10SM
07:15
Overcast
63°F / 17°C 59°F / 15°C 88% 30.21 in
(1023 mb)
N 10.4 mph
(N 17 kph)
- 7SM
06:54
Mostly Cloudy
63°F / 17°C 59°F / 15°C 88% 30.18 in
(1022 mb)
NNW 10.4 mph
(NNW 17 kph)
- 9SM
06:01
Partly Cloudy
61°F / 16°C 59°F / 15°C 94% 30.18 in
(1022 mb)
N 4.6 mph
(N 7 kph)
- 9SM
05:54
Mostly Cloudy
61°F / 16°C 59°F / 15°C 94% 30.18 in
(1022 mb)
N 5.8 mph
(N 9 kph)
- 9SM
05:35
Mostly Cloudy
61°F / 16°C 59°F / 15°C 94% 30.18 in
(1022 mb)
N 6.9 mph
(N 11 kph)
- 9SM
05:24
Mostly Cloudy
61°F / 16°C 59°F / 15°C 94% 30.18 in
(1022 mb)
NNW 6.9 mph
(NNW 11 kph)
- 9SM
05:08
Partly Cloudy
61°F / 16°C 59°F / 15°C 94% 30.18 in
(1022 mb)
N 3.5 mph
(N 6 kph)
- 10SM
04:54
Mostly Cloudy
61°F / 16°C 59°F / 15°C 94% 30.18 in
(1022 mb)
Calm - 9SM
04:50
Mostly Cloudy
61°F / 16°C 59°F / 15°C 94% 30.18 in
(1022 mb)
NW 3.5 mph
(NW 6 kph)
- 9SM
04:46
Partly Cloudy
61°F / 16°C 59°F / 15°C 94% 30.18 in
(1022 mb)
NW 4.6 mph
(NW 7 kph)
- 9SM
03:54
Overcast
63°F / 17°C 61°F / 16°C 94% 30.18 in
(1022 mb)
NNW 4.6 mph
(NNW 7 kph)
- 10SM
03:25
Overcast
63°F / 17°C 61°F / 16°C 94% 30.18 in
(1022 mb)
N 5.8 mph
(N 9 kph)
- 10SM
02:54
Overcast
63°F / 17°C 61°F / 16°C 94% 30.18 in
(1022 mb)
NNW 5.8 mph
(NNW 9 kph)
- 10SM
02:38
Overcast
63°F / 17°C 61°F / 16°C 94% 30.18 in
(1022 mb)
Calm - 10SM
02:19
Overcast
63°F / 17°C 61°F / 16°C 94% 30.18 in
(1022 mb)
Calm - 10SM
02:11
Overcast
63°F / 17°C 61°F / 16°C 94% 30.18 in
(1022 mb)
Calm - 10SM
01:54
Overcast
63°F / 17°C 61°F / 16°C 94% 30.18 in
(1022 mb)
N 3.5 mph
(N 6 kph)
0.01 in
(0.25 mm)
10SM
01:42
Overcast
Light Rain
63°F / 17°C 61°F / 16°C 94% 30.18 in
(1022 mb)
Calm 0.01 in
(0.25 mm)
9SM
01:03
Overcast
Light Rain
63°F / 17°C 61°F / 16°C 94% 30.18 in
(1022 mb)
Calm 0.00 in
(0.00 mm)
6SM
00:54
Mostly Cloudy
Light Rain
63°F / 17°C 61°F / 16°C 94% 30.18 in
(1022 mb)
Calm 0.00 in
(0.00 mm)
6SM
00:51
Mostly Cloudy
63°F / 17°C 61°F / 16°C 94% 30.18 in
(1022 mb)
Calm 0.00 in
(0.00 mm)
7SM
00:07
Overcast
64°F / 18°C 63°F / 17°C 94% 30.18 in
(1022 mb)
SSW 3.5 mph
(SSW 6 kph)
0.00 in
(0.00 mm)
8SM
Time Weather Temperature Dewpoint Humidity Pressure Winds Precip Visibility


Weather for websites

WeatherForYou.com, LLC is not responsible for any damages or problems caused by this service. Current weather conditions are obtained from the closest station including government and personal stations which may have varying degrees of accuracy. Weather forecasts are derived from the NOAA NDFD. Like all things, this site belongs to Jesus Christ... He just trusts us to maintain it. If you have any questions or comments email webmaster@weatherforyou.com

Copyright © 2015, WeatherForYou.com LLC. All rights reserved.